Regional Weather Roundup
Issued by NWS

Home | Current Version | Previous Version | Graphics & Text | Print | Product List | Glossary On
Versions: 1 2 3 4 5 6 7 8 9 10 11 12 13 14 15 16 17 18 19 20 21 22 23 24 25 26 27 28 29 30 31 32 33 34 35 36 37 38 39 40 41 42 43 44 45 46 47 48 49 50
000
ASUS43 KIND 301459
RWRIN

WEATHER ROUNDUP FOR INDIANA
NATIONAL WEATHER SERVICE INDIANAPOLIS IN
1100 AM EDT WED JUL 30 2014

NOTE: "FAIR" INDICATES FEW OR NO CLOUDS BELOW 12,000 FEET WITH NO
SIGNIFICANT WEATHER AND/OR OBSTRUCTIONS TO VISIBILITY.

* - STATION DOES NOT REPORT WEATHER SUCH AS PRECIPITATION OR FOG.

+ - STATION NOT QUALITY CONTROLLED BY THE NATIONAL WEATHER SERVICE.
    USE DATA WITH CAUTION...ESPECIALLY DEWPOINT AND RELATIVE
    HUMIDITY OBSERVATIONS.

INZ001>003-010>013-019-020-301600-
NORTHWEST INDIANA

CITY           SKY/WX    TMP DP  RH WIND       PRES   REMARKS
GARY /AIRPORT/ MOSUNNY   72  57  60 NW6       30.05S
KNOX *+        MOSUNNY   66  58  73 CALM      30.04S
MONTICELLO +   PTSUNNY   68  60  75 NW6       30.05S
RENSSELAER +   MOSUNNY   70  61  73 W5        30.06S
VALPARAISO     MOSUNNY   69  58  67 NW5       30.06R

$$

LMZ046-743>745-301600-
SOUTHERN LAKE MICHIGAN

STATION/POSITION TIME  TEMP WIND        PRES
                       AIR  DIR/SP/G
                 (UTC) (F)  (DEG/KT/KT) (MB)
MICHIGAN CITY    1400   65  270/  8/ 10   N/A

$$

INZ004-005-014>016-021>024-301600-
NORTH CENTRAL INDIANA

CITY           SKY/WX    TMP DP  RH WIND       PRES   REMARKS
ELKHART        CLOUDY    64  63  94 W6        30.05R
GOSHEN         CLOUDY    67  59  75 W6        30.04R
SOUTH BEND     PTSUNNY   69  61  75 VRB7      30.05S
WARSAW +       CLOUDY    64  59  82 NW3       30.05S

$$

INZ006>009-017-018-025>027-301600-
NORTHEAST INDIANA

CITY           SKY/WX    TMP DP  RH WIND       PRES   REMARKS
ANGOLA *+      SUNNY     66  57  72 NW6       30.03S
AUBURN +       MOSUNNY   68  55  64 NW5       30.05R
FORT WAYNE     PTSUNNY   69  58  67 VRB6      30.05S

$$

INZ028-029-035-036-043>045-051>053-301600-
WEST CENTRAL INDIANA

CITY           SKY/WX    TMP DP  RH WIND       PRES   REMARKS
GREENCASTLE +  SUNNY     70  61  73 W3        30.09S
LAFAYETTE      CLOUDY    67  62  84 W5        30.06S
TERRE HAUTE    SUNNY     72  60  66 W5        30.08S

$$

INZ030>032-037>040-046>048-054>057-064-065-301600-
CENTRAL INDIANA

CITY           SKY/WX    TMP DP  RH WIND       PRES   REMARKS
ANDERSON       SUNNY     68  59  73 W8        30.07S
INDIANAPOLIS   MOSUNNY   70  60  70 W8        30.07S
-EAGLE CREEK   SUNNY     71  60  68 W7        30.07R
KOKOMO *+      MOSUNNY   66  59  77 NW7       30.06S
MT COMFORT *+  SUNNY     72  66  83 W9        30.07S
SHELBYVILLE    SUNNY     72  63  73 W9        30.07S

$$

INZ033-034-041-042-049-050-058-059-301600-
EAST CENTRAL INDIANA

CITY           SKY/WX    TMP DP  RH WIND       PRES   REMARKS
MUNCIE         MOSUNNY   68  60  75 NW5       30.06R

$$

INZ060-061-067>069-081>083-085>088-301600-
SOUTHWEST INDIANA

CITY           SKY/WX    TMP DP  RH WIND       PRES   REMARKS
EVANSVILLE     SUNNY     75  59  57 W6        30.11S

$$

INZ062-063-066-070>080-084-089>092-301600-
SOUTH CENTRAL AND SOUTHEAST INDIANA

CITY           SKY/WX    TMP DP  RH WIND       PRES   REMARKS
BLOOMINGTON    SUNNY     72  61  68 VRB5      30.09S
SEYMOUR +      SUNNY     70  46  43 W6        30.09S

$$




USA.gov is the U.S. government's official web portal to all federal, state and local government web resources and services.